Back to catalog

STARLINK-31085

AliveCommunicationsVLEO
NORAD 58609·PAYLOAD·🇺🇸 United States

Launched Dec 19, 2023 from Cape Canaveral Space Force Station

Loading…

Next Passes (next 24 hours)

TLE

FreshSource: CelesTrak SupGP

Epoch: Sep 15, 2026, 01:57 UTC

1 58609C 23200W   26258.08173611  .00014541  00000+0  52674-3 0  2584
2 58609  42.9991 179.3756 0001395 272.4087 119.8420 15.27568026    18

Track STARLINK-31085 in real time with AllMySat

Download on the App Store